Погода в Сухиничи

Погода в Сухиничи : погода сейчас, прогноз погоды и архив. Всё, что Вы хотите узнать о погоде в Сухиничи!

Хотите узнать прогноз погоды в Сухиничи? Тогда Вам сюда: Погода в Сухиничи

Поиск расширенной информации на нашем сайте:

Другие новости

Новости СМИ2

Главная страница сайта

Новости сайта

03.07.2017

Напоминаем, что на нашем специализированном сайте Метеоцентр.Азия вы можете получить высокодетализированные автоматические прогнозы погоды по пунктам России, СНГ и мира в авиационном формате (включающие направление и скорость ветра, видимость, явления погоды, количество и форму облачности, нижнюю и верхнюю границу облачности).


Погода в Сухиничи - сегодня

Время (UTC), дата Ветер
(°,м/с) 
Видим.   Явления Облачность Т
(°С)
Тd
(°С)
f(%) Тe
(°С)
Pmin
(гПа)
dP
(гПа)
Po
(мм)
O2
(г/м3)
Тmin Tmax R s Состояние
почвы
06 19.08.17 220 (ЮЗ) 40000 м    3/0 верхняя 
[Ci fib]
+23.1 +13.8 56 +30  1021.8  0.5  746  274  +17         
09 19.08.17 180 (Ю) 40000 м    4/0 верхняя 
[Ci fib]
+27.8 +14.6 44 +36  1021.2  -0.3  746  270           
12 19.08.17 190 (Ю) 40000 м    5/0 верхняя 
[Ci fib]
+29.6 +13 36 +35  1020.8  -0.2  745  269           
15 19.08.17 180 (Ю) 40000 м    5/0 верхняя 
[Ci fib]
+28 +16.4 49 +39  1020.6  -0.3  745  269           
18 19.08.17 160 (Ю) 28000 м    3/0 верхняя 
[Ci fib]
+21.9 +15.3 66 +31  1021.2  0.1  745  275    +30       
21 19.08.17 170 (Ю) 28000 м    ясно 
+20.8 +12.9 61 +26  1022.1  0.7  746  277           
00 20.08.17 230 (ЮЗ) 25000 м    ясно 
+17.6 +12.6 72 +24  1022.6  0.2  746  280           
03 20.08.17 280 (З) 30000 м    5/5 2000 м средняя 
[Ac trans]
+18.7 +11.4 62 +23  1022.7  0.2  746  279  +17.5         
06 20.08.17 240 (ЮЗ) 40000 м    3/3 2000 м средняя, верхняя 
[Ac trans|Ci sp]
+22.7 +12.9 54 +28  1022.8  0.5  746  275  +17.5         
09 20.08.17 220 (ЮЗ) 40000 м    ясно 
+28 +11.8 37 +32  1022.5  0.1  747  271           
12 20.08.17 200 (Ю) 40000 м    ясно 
+28.6 +10.8 33 +31  1021.9  -0.5  746  270           
15 20.08.17 150 (ЮВ) 40000 м    3/3 1000 м 
[Cu hum]
+26.3 +14.4 48 +34  1020.9  -1.1  745  271           
18 20.08.17 120 (ЮВ) 25000 м    ясно 
+21.1 +15 68 +30  1021  -0.3  745  276    +29.6       
21 20.08.17 130 (ЮВ) 22000 м    ясно 
+19.5 +13.9 70 +28  1020.6  -0.6  745  277           
00 21.08.17 130 (ЮВ) 22000 м    ясно 
+17.9 +11.5 66 +21  1019.7  -1  744  279           
03 21.08.17 130 (ЮВ) 25000 м    ясно 
+16.1 +10.4 69 +19  1019.3  -0.6  743  281  +16.1         
06 21.08.17 160 (Ю) 40000 м    ясно 
+21.8 +12.1 54 +26  1018  -0.6  743  275  +16         
09 21.08.17 160 (Ю) 40000 м    4/0 верхняя 
[Ci sp]
+26.4 +14.4 48 +34  1017.2  -0.4  743  270           
12 21.08.17 130 (ЮВ) 40000 м    ясно 
+29.2 +12 35 +33  1015.3  -1.5  741  268           
15 21.08.17 130 (ЮВ) 40000 м    3/0 верхняя 
[Ci fib]
+27.4 +12.1 39 +32  1014.4  -1.1  741  269           
18 21.08.17 130 (ЮВ) 30000 м    9/9 2000 м средняя 
[Ac As]
+22.3 +12.3 53 +27  1014.9  0.1  741  274    +29.3       
21 21.08.17 120 (ЮВ) 28000 м    ясно 
+20.2 +10.8 55 +23  1014.9  -0.3  740  276           
00 22.08.17 130 (ЮВ) 26000 м    8/8 2000 м средняя 
[Ac As]
+19.1 +10.3 57 +22  1014.2  -0.8  740  277           
03 22.08.17 120 (ЮВ) 30000 м    9/9 600 м 
[Sc]
+18.1 +10.4 61 +21  1013.4  -0.9  739  277  +17.9         
06 22.08.17 130 (ЮВ) 30000 м    9/8 600 м средняя, верхняя 
[Sc|Ac lent|Ci sp]
+20.8 +12 57 +25  1013  739  274  +17.9         
Время (UTC), дата Ветер
(°,м/с) 
Видим.   Явления Облачность Т
(°С)
Тd
(°С)
f(%) Тe
(°С)
Pmin
(гПа)
dP
(гПа)
Po
(мм)
O2
(г/м3)
Тmin Tmax R s Состояние
почвы

Для получения пояснительной информации подведите курсор к названию столбца.

ПОГОДА в Сухиничи - архив

Всё, что Вы хотите узнать о погоде в Сухиничи - удобно и подробно!

Выберите нужную дату (начиная с 1 января 2015* года) и нажмите кнопку "Найти".
Будут отображены архивные сводки погоды по пункту Сухиничи, начиная с указанной даты.


Отображать данные в формате CSV (для использования в таблицах Excel)


Внимание! Наш архив погоды предназначен исключительно для личного некоммерческого использования в познавательных целях. Если Вам необходимы официальные справки о состоянии погоды (для производственных, юридических, коммерческих и т.п. целей), обращайтесь в органы Росгидромета.

*Примечание: данная дата относится к архиву по метеостанциям СССР (Россия, СНГ, Балтия).
Архив по метеостанциям Зарубежной Европы и Азии (кроме Китая) хранится 10 дней, по другим регионам земного шара (Китай, Африка, Америка, Австралия, Океания) - 1 день.

Сухиничи - район местоположения метеостанции


Название, широта, долгота, высота метеостанции:
Сухиничи 54.1°ш. 35.3°д. 238 м над ур. моря [Российская Федерация]

Дополнительная информация

В oтличие oт бoльшинства пoгoдных сайтoв мы публикуем пoдрoбную метеoинфoрмацию в детальнoм прoфессиoнальнoм фoрмате.

Характеристики температуры и влажнoсти вoздуха измеряются на высoте 2 м в тени вдали oт зданий и деревьев.
Скoрoсть ветра измеряется на высoте 10 м (на урoвне рoста челoвека скoрoсть ветра ниже в 1.5-2 раза). Если метеoстанция нахoдится в гoрoде или в лесу, тo скoрoсть ветра занижена на 2-4 м/с пo сравнению с oткрытым местoм. Скoрoсть ветра над акватoриями крупных рек и oзёр, а также на вершинах хoлмoв на 2-5 м/с выше, чем в oбычных услoвиях.
Атмoсфернoе давление в разных тoчках местнoсти мoжет значительнo oтличаться oт давления на метеoстанции, в зависимoсти oт услoвий рельефа (при пoдъёме на 10 м давление пoнижается примернo на 1 мм рт.ст.).